FW6984 Weather Reports


Display with metric or nautical units.
time (UTC)temp
F
wind
direction
speed
MPH
gust
MPH
rain 1hr
in
rain 24hr
in
rain mn
in
humidity
%
barometer
mb
20260506044005 65 196 5.0 8.0 0.00 0.00 0.00 28 1005.2
20260506043505 65 203 4.0 14.0 0.00 0.00 0.00 28 1005.2
20260506043004 65 193 5.0 14.0 0.00 0.00 0.00 28 1005.1
20260506042504 65 210 6.0 10.0 0.00 0.00 0.00 28 1005.1
20260506042005 66 212 7.0 10.0 0.00 0.00 0.00 27 1005.0
20260506041504 66 198 5.0 9.0 0.00 0.00 0.00 27 1005.0
20260506041003 66 206 5.0 10.0 0.00 0.00 0.00 27 1004.9
20260506040503 66 187 6.0 9.0 0.00 0.00 0.00 27 1004.9
20260506040003 66 194 5.0 10.0 0.00 0.00 0.00 27 1004.8
20260506035505 66 218 6.0 10.0 0.00 0.00 0.00 26 1004.7
20260506035003 67 200 6.0 10.0 0.00 0.00 0.00 26 1004.6
20260506034507 67 202 6.0 13.0 0.00 0.00 0.00 25 1004.5
20260506034002 67 227 7.0 13.0 0.00 0.00 0.00 25 1004.3
20260506033501 67 216 6.0 12.0 0.00 0.00 0.00 25 1004.2
20260506033001 67 234 7.0 12.0 0.00 0.00 0.00 26 1004.1
20260506032501 67 214 5.0 8.0 0.00 0.00 0.00 26 1004.1
20260506032003 68 212 4.0 8.0 0.00 0.00 0.00 26 1004.0
20260506031502 68 210 4.0 8.0 0.00 0.00 0.00 26 1003.9
20260506031100 68 207 4.0 7.0 0.00 0.00 0.00 26 1003.9
20260506030601 68 210 4.0 7.0 0.00 0.00 0.00 26 1003.7
20260506025602 68 224 3.0 7.0 0.00 0.00 0.00 26 1003.7
20260506025101 68 216 3.0 8.0 0.00 0.00 0.00 26 1003.5
20260506024618 69 233 3.0 10.0 0.00 0.00 0.00 26 1003.4
20260506024059 69 237 5.0 10.0 0.00 0.00 0.00 26 1003.5
20260506023559 69 223 3.0 10.0 0.00 0.00 0.00 26 1003.4
20260506023058 69 235 4.0 12.0 0.00 0.00 0.00 26 1003.2
20260506022558 69 250 7.0 12.0 0.00 0.00 0.00 26 1003.3
20260506022058 69 256 7.0 12.0 0.00 0.00 0.00 26 1003.2
20260506021559 69 234 7.0 13.0 0.00 0.00 0.00 26 1003.2
20260506021058 70 235 8.0 11.0 0.00 0.00 0.00 26 1003.0
20260506020557 70 258 6.0 10.0 0.00 0.00 0.00 26 1003.0
20260506020059 70 257 7.0 15.0 0.00 0.00 0.00 26 1003.0
20260506015557 70 260 10.0 14.0 0.00 0.00 0.00 26 1003.0
20260506015057 70 240 6.0 16.0 0.00 0.00 0.00 27 1002.8
20260506014557 70 270 9.0 16.0 0.00 0.00 0.00 26 1002.8
20260506014100 71 270 9.0 15.0 0.00 0.00 0.00 27 1002.8
20260506013557 71 247 9.0 15.0 0.00 0.00 0.00 27 1002.8
20260506013156 71 252 11.0 15.0 0.00 0.00 0.00 29 1002.7
20260506012558 71 265 9.0 16.0 0.00 0.00 0.00 30 1002.6
20260506012054 71 252 8.0 16.0 0.00 0.00 0.00 31 1002.7
20260506011606 71 270 8.0 18.0 0.00 0.00 0.00 31 1002.6
20260506011054 71 276 11.0 18.0 0.00 0.00 0.00 31 1002.7
20260506010553 71 285 10.0 17.0 0.00 0.00 0.00 32 1002.7
20260506010057 71 275 8.0 16.0 0.00 0.00 0.00 32 1002.7
20260506005552 71 266 10.0 16.0 0.00 0.00 0.00 31 1002.6
20260506005055 71 254 9.0 20.0 0.00 0.00 0.00 32 1002.6
20260506004554 72 294 12.0 20.0 0.00 0.00 0.00 31 1002.5
20260506004052 72 274 10.0 16.0 0.00 0.00 0.00 30 1002.5
20260506003552 72 284 13.0 16.0 0.00 0.00 0.00 29 1002.6
20260506003052 72 259 10.0 19.0 0.00 0.00 0.00 28 1002.4
20260506002551 72 275 12.0 19.0 0.00 0.00 0.00 28 1002.5
20260506002051 72 272 11.0 18.0 0.00 0.00 0.00 29 1002.4
20260506001550 72 257 10.0 14.0 0.00 0.00 0.00 30 1002.6
20260506001051 72 289 8.0 15.0 0.00 0.00 0.00 31 1002.4
20260506000550 72 271 10.0 17.0 0.00 0.00 0.00 31 1002.4
20260506000051 72 258 8.0 18.0 0.00 0.00 0.00 31 1002.4
20260505235548 72 270 7.0 15.0 0.00 0.00 0.00 31 1002.4
20260505235047 72 241 10.0 17.0 0.00 0.00 0.00 31 1002.3
20260505234547 72 269 10.0 18.0 0.00 0.00 0.00 30 1002.4
20260505234047 72 237 10.0 17.0 0.00 0.00 0.00 31 1002.4
20260505233545 72 247 12.0 20.0 0.00 0.00 0.00 31 1002.4
20260505233045 72 254 10.0 20.0 0.00 0.00 0.00 30 1002.4
20260505232545 72 255 11.0 23.0 0.00 0.00 0.00 31 1002.5
20260505232047 72 278 8.0 25.0 0.00 0.00 0.00 31 1002.6
20260505231544 73 267 11.0 19.0 0.00 0.00 0.00 30 1002.5
20260505231047 73 287 10.0 18.0 0.00 0.00 0.00 31 1002.6
20260505230542 73 262 11.0 18.0 0.00 0.00 0.00 31 1002.6
20260505230054 73 246 10.0 20.0 0.00 0.00 0.00 31 1002.7
20260505225541 73 284 11.0 20.0 0.00 0.00 0.00 30 1002.8
20260505225041 72 247 10.0 24.0 0.00 0.00 0.00 30 1002.8
20260505224541 72 225 11.0 24.0 0.00 0.00 0.00 31 1002.9
20260505224043 72 268 14.0 26.0 0.00 0.00 0.00 31 1002.9
20260505223539 73 280 16.0 26.0 0.00 0.00 0.00 30 1002.9
20260505223053 73 262 16.0 27.0 0.00 0.00 0.00 31 1002.9
20260505222538 72 255 11.0 28.0 0.00 0.00 0.00 32 1003.0
20260505222038 73 264 17.0 28.0 0.00 0.00 0.00 31 1003.2
20260505221537 72 249 13.0 27.0 0.00 0.00 0.00 31 1003.2
20260505221039 72 246 12.0 25.0 0.00 0.00 0.00 31 1003.3
20260505220536 73 263 16.0 26.0 0.00 0.00 0.00 31 1003.4
20260505220041 73 202 13.0 25.0 0.00 0.00 0.00 32 1003.3
20260505215534 72 189 13.0 22.0 0.00 0.00 0.00 32 1003.6
20260505215034 72 263 14.0 25.0 0.00 0.00 0.00 32 1003.6
20260505214532 72 266 17.0 25.0 0.00 0.00 0.00 32 1003.6
20260505214032 72 280 13.0 19.0 0.00 0.00 0.00 33 1003.8
20260505213530 72 194 8.0 18.0 0.00 0.00 0.00 36 1004.0
20260505213045 71 241 11.0 19.0 0.00 0.00 0.00 37 1004.0
20260505212531 70 222 12.0 21.0 0.00 0.00 0.00 37 1004.2
20260505212027 71 218 12.0 24.0 0.00 0.00 0.00 37 1004.3
20260505211527 70 250 12.0 24.0 0.00 0.00 0.00 38 1004.3
20260505211025 70 246 10.0 23.0 0.00 0.00 0.00 39 1004.5
20260505210524 70 231 13.0 22.0 0.00 0.00 0.00 39 1004.5
20260505210023 70 204 12.0 24.0 0.00 0.00 0.00 39 1004.6
20260505205523 69 264 13.0 24.0 0.00 0.00 0.00 39 1004.8
20260505205022 69 222 10.0 17.0 0.00 0.00 0.00 40 1004.8
20260505204521 68 208 9.0 17.0 0.00 0.00 0.00 41 1004.9
20260505204024 68 201 12.0 21.0 0.00 0.00 0.00 41 1005.1
20260505203520 68 233 12.0 21.0 0.00 0.00 0.00 41 1005.2
20260505203025 68 199 7.0 20.0 0.00 0.00 0.00 41 1005.2
20260505202520 68 262 13.0 24.0 0.00 0.00 0.00 41 1005.3
20260505202020 68 247 14.0 23.0 0.00 0.00 0.00 42 1005.4
20260505201520 67 266 16.0 23.0 0.00 0.00 0.00 42 1005.4
20260505201019 67 279 16.0 24.0 0.00 0.00 0.00 42 1005.6
20260505200521 67 265 16.0 23.0 0.00 0.00 0.00 42 1005.4
20260505200030 67 270 12.0 28.0 0.00 0.00 0.00 42 1005.5
20260505195518 67 233 11.0 28.0 0.00 0.00 0.00 43 1005.6
20260505195018 67 243 17.0 23.0 0.00 0.00 0.00 43 1005.8
20260505194518 66 260 10.0 22.0 0.00 0.00 0.00 43 1005.8
20260505194017 66 234 14.0 22.0 0.00 0.00 0.00 43 1005.9
20260505193517 66 210 15.0 22.0 0.00 0.00 0.00 43 1005.9
20260505193017 65 248 14.0 28.0 0.00 0.00 0.00 44 1005.9
20260505192519 65 272 14.0 35.0 0.00 0.00 0.00 46 1006.0
20260505192016 64 281 19.0 35.0 0.00 0.00 0.00 50 1006.1
20260505191516 64 276 26.0 38.0 0.00 0.00 0.00 51 1006.0
20260505191016 64 279 24.0 38.0 0.00 0.00 0.00 48 1006.1
20260505190517 64 253 26.0 36.0 0.00 0.00 0.00 47 1006.0
20260505190015 64 267 24.0 34.0 0.00 0.00 0.00 46 1006.3
20260505185518 64 274 19.0 41.0 0.00 0.00 0.00 45 1006.6
20260505185014 64 268 24.0 41.0 0.00 0.00 0.00 44 1006.7
20260505184521 65 260 26.0 40.0 0.00 0.00 0.00 42 1006.8
20260505184013 65 283 18.0 29.0 0.00 0.00 0.00 42 1006.6
20260505183512 65 260 15.0 28.0 0.00 0.00 0.00 43 1006.6
20260505183011 65 276 18.0 28.0 0.00 0.00 0.00 44 1006.2
20260505182510 65 258 16.0 25.0 0.00 0.00 0.00 44 1006.1
20260505182010 65 280 18.0 32.0 0.00 0.00 0.00 43 1006.1
20260505181510 65 276 20.0 32.0 0.00 0.00 0.00 44 1006.1
20260505181010 66 286 16.0 26.0 0.00 0.00 0.00 41 1006.0
20260505180514 66 294 19.0 26.0 0.00 0.00 0.00 41 1006.0
20260505180009 66 281 18.0 32.0 0.00 0.00 0.00 41 1005.9
20260505175509 66 310 18.0 32.0 0.00 0.00 0.00 40 1005.8
20260505175009 67 274 13.0 24.0 0.00 0.00 0.00 38 1005.9
20260505174514 67 286 16.0 25.0 0.00 0.00 0.00 38 1005.9
20260505174008 68 294 14.0 26.0 0.00 0.00 0.00 37 1005.7
20260505173512 68 282 18.0 26.0 0.00 0.00 0.00 37 1005.7
20260505173018 68 283 11.0 18.0 0.00 0.00 0.00 37 1005.7
20260505172505 68 235 11.0 19.0 0.00 0.00 0.00 37 1005.7
20260505172006 67 246 11.0 21.0 0.00 0.00 0.00 37 1005.7
20260505171505 67 252 12.0 22.0 0.00 0.00 0.00 37 1005.8
20260505171009 67 241 13.0 22.0 0.00 0.00 0.00 37 1005.6
20260505170504 67 270 8.0 15.0 0.00 0.00 0.00 38 1005.6
20260505170004 67 211 10.0 17.0 0.00 0.00 0.00 37 1005.5
20260505165503 67 254 11.0 17.0 0.00 0.00 0.00 38 1005.4
20260505165003 67 271 9.0 18.0 0.00 0.00 0.00 39 1005.6
20260505164502 66 301 11.0 18.0 0.00 0.00 0.00 39 1005.5
20260505164100 66 265 9.0 17.0 0.00 0.00 0.00 40 1005.5
20260505163558 66 275 7.0 13.0 0.00 0.00 0.00 41 1005.6
20260505163101 65 232 3.0 11.0 0.00 0.00 0.00 43 1005.5
20260505162559 65 270 6.0 12.0 0.00 0.00 0.00 43 1005.5
20260505162054 65 258 8.0 13.0 0.00 0.00 0.00 43 1005.5
20260505161553 64 242 8.0 13.0 0.00 0.00 0.00 43 1005.4
20260505161053 64 239 6.0 10.0 0.00 0.00 0.00 42 1005.4
20260505160557 64 276 5.0 10.0 0.00 0.00 0.00 43 1005.4
20260505153106 63 286 7.0 10.0 0.00 0.00 0.00 45 1005.8
20260505152548 63 278 1.0 8.0 0.00 0.00 0.00 47 1005.7
20260505152047 63 316 2.0 9.0 0.00 0.00 0.00 47 1005.8
20260505151555 63 316 3.0 9.0 0.00 0.00 0.00 47 1005.8
20260505151047 63 250 2.0 7.0 0.00 0.00 0.00 48 1005.7
20260505150547 63 243 2.0 4.0 0.00 0.00 0.00 47 1005.6
20260505140543 59 185 1.0 4.0 0.00 0.00 0.00 57 1005.8
20260505125023 57 185 0.0 2.0 0.00 0.00 0.00 58 1005.4
20260505124527 57 185 0.0 4.0 0.00 0.00 0.00 59 1005.2
20260505124022 56 185 1.0 4.0 0.00 0.00 0.00 59 1005.3
20260505123521 56 154 0.0 5.0 0.00 0.00 0.00 60 1005.2
20260505123018 56 154 1.0 6.0 0.00 0.00 0.00 61 1005.2
20260505122517 55 154 3.0 6.0 0.00 0.00 0.00 61 1005.1
20260505122017 55 156 3.0 6.0 0.00 0.00 0.00 62 1005.1
20260505121517 55 195 3.0 5.0 0.00 0.00 0.00 62 1004.9
20260505121017 55 195 2.0 4.0 0.00 0.00 0.00 62 1004.8
20260505120515 56 200 2.0 4.0 0.00 0.00 0.00 61 1004.8
20260505120014 56 218 2.0 4.0 0.00 0.00 0.00 60 1004.8
20260505115513 56 273 0.0 2.0 0.00 0.00 0.00 58 1004.8
20260505115012 56 273 0.0 2.0 0.00 0.00 0.00 57 1004.8
20260505114522 57 273 0.0 3.0 0.00 0.00 0.00 57 1004.7
20260505114012 57 273 0.0 2.0 0.00 0.00 0.00 56 1004.7
20260505113509 57 273 0.0 2.0 0.00 0.00 0.00 56 1004.7
20260505113009 57 273 0.0 3.0 0.00 0.00 0.00 55 1004.7
20260505112508 58 273 0.0 2.0 0.00 0.00 0.00 54 1004.7
20260505112008 58 273 0.0 3.0 0.00 0.00 0.00 53 1004.4
20260505111508 58 273 1.0 5.0 0.00 0.00 0.00 53 1004.4
20260505111009 58 273 2.0 5.0 0.00 0.00 0.00 53 1004.4
20260505110507 58 189 2.0 5.0 0.00 0.00 0.00 53 1004.5
20260505102005 58 138 2.0 4.0 0.00 0.00 0.00 53 1004.7
20260505101505 58 138 2.0 3.0 0.00 0.00 0.00 52 1004.5
20260505101004 58 138 2.0 3.0 0.00 0.00 0.00 52 1004.4
20260505100504 58 138 2.0 3.0 0.00 0.00 0.00 52 1004.5
20260505100004 58 138 1.0 3.0 0.00 0.00 0.00 53 1004.4
20260505095505 58 137 2.0 3.0 0.00 0.00 0.00 52 1004.4
20260505095003 58 137 2.0 4.0 0.00 0.00 0.00 52 1004.5
20260505094505 58 137 2.0 4.0 0.00 0.00 0.00 53 1004.5
20260505094002 57 137 3.0 5.0 0.00 0.00 0.00 53 1004.3
20260505093502 58 137 2.0 5.0 0.00 0.00 0.00 53 1004.3
20260505093001 58 137 2.0 5.0 0.00 0.00 0.00 52 1004.2
20260505092600 58 137 2.0 5.0 0.00 0.00 0.00 52 1004.3
20260505092059 59 137 4.0 5.0 0.00 0.00 0.00 50 1004.3
20260505091602 59 238 1.0 3.0 0.00 0.00 0.00 48 1004.3
20260505091056 59 238 1.0 4.0 0.00 0.00 0.00 48 1004.3
20260505090555 60 238 2.0 5.0 0.00 0.00 0.00 47 1004.6
20260505090059 60 238 3.0 5.0 0.00 0.00 0.00 47 1004.7
20260505085554 60 244 3.0 7.0 0.00 0.00 0.00 46 1004.6
20260505085052 60 244 4.0 8.0 0.00 0.00 0.00 46 1004.7
20260505084552 61 247 4.0 8.0 0.00 0.00 0.00 46 1004.6
20260505084051 61 233 4.0 9.0 0.00 0.00 0.00 45 1004.6
20260505083549 61 263 6.0 9.0 0.00 0.00 0.00 45 1004.8
20260505083050 62 242 5.0 9.0 0.00 0.00 0.00 44 1004.8
20260505082547 62 237 5.0 9.0 0.00 0.00 0.00 44 1004.8
20260505082049 62 200 4.0 6.0 0.00 0.00 0.00 45 1004.8
20260505081558 62 206 3.0 6.0 0.00 0.00 0.00 44 1004.8
20260505081047 62 202 3.0 5.0 0.00 0.00 0.00 44 1004.9
20260505080545 62 214 3.0 5.0 0.00 0.00 0.00 43 1004.9
20260505080049 63 214 2.0 5.0 0.00 0.00 0.00 43 1004.9
20260505075547 63 214 3.0 5.0 0.00 0.00 0.00 42 1004.9
20260505075044 63 212 3.0 5.0 0.00 0.00 0.00 41 1005.0
20260505074604 63 241 2.0 5.0 0.00 0.00 0.00 41 1005.0
20260505074044 62 241 2.0 5.0 0.00 0.00 0.00 40 1004.8
20260505073542 62 241 2.0 7.0 0.00 0.00 0.00 40 1005.0
20260505073042 63 241 3.0 7.0 0.00 0.00 0.00 39 1005.1
20260505072543 62 231 4.0 7.0 0.00 0.00 0.00 38 1005.1
20260505072042 62 245 3.0 7.0 0.00 0.00 0.00 38 1005.1
20260505071542 62 246 3.0 7.0 0.00 0.00 0.00 38 1005.1
20260505071040 62 238 2.0 5.0 0.00 0.00 0.00 39 1004.9
20260505070540 62 238 2.0 5.0 0.00 0.00 0.00 39 1004.9
20260505070040 62 238 3.0 5.0 0.00 0.00 0.00 39 1004.7
20260505065538 62 238 3.0 4.0 0.00 0.00 0.00 39 1004.4
20260505065038 62 195 2.0 4.0 0.00 0.00 0.00 39 1004.4
20260505064538 62 195 2.0 4.0 0.00 0.00 0.00 39 1004.6
20260505064035 63 195 1.0 3.0 0.00 0.00 0.00 37 1004.6
20260505063534 63 195 1.0 4.0 0.00 0.00 0.00 37 1004.6
20260505063040 63 195 2.0 4.0 0.00 0.00 0.00 36 1004.8
20260505062534 63 195 1.0 3.0 0.00 0.00 0.00 35 1004.7
20260505062030 64 195 1.0 3.0 0.00 0.00 0.00 34 1004.8
20260505061534 64 195 0.0 3.0 0.00 0.00 0.00 34 1004.6
20260505061029 64 195 1.0 3.0 0.00 0.00 0.00 33 1004.8
20260505060527 65 195 1.0 2.0 0.00 0.00 0.00 33 1004.9
20260505060026 65 195 0.0 3.0 0.00 0.00 0.00 32 1005.0
20260505055527 65 195 1.0 4.0 0.00 0.00 0.00 32 1005.0
20260505055027 66 195 2.0 5.0 0.00 0.00 0.00 31 1005.1
20260505054529 66 195 3.0 5.0 0.00 0.00 0.00 30 1005.2
20260505054024 66 241 2.0 4.0 0.00 0.00 0.00 30 1005.1
20260505053524 67 252 2.0 4.0 0.00 0.00 0.00 30 1005.0
20260505053024 67 272 1.0 4.0 0.00 0.00 0.00 29 1004.9
20260505052524 67 293 2.0 3.0 0.00 0.00 0.00 29 1004.9
20260505052024 67 293 1.0 2.0 0.00 0.00 0.00 28 1004.9
20260505051528 67 293 0.0 2.0 0.00 0.00 0.00 28 1005.0
20260505051027 68 293 0.0 3.0 0.00 0.00 0.00 27 1005.0
20260505050523 68 293 1.0 3.0 0.00 0.00 0.00 27 1004.9